Canadian, TX

5:57 PM CST on December 15, 2019 (GMT -0600)
Hemphill County

Weather History for KHHF - October, 2019

Change the Weather History Date:

Thursday, October 24, 2019

  Actual Average (KPPA) Record (KPPA)
Temperature  
Mean Temperature 43 °F -  
Max Temperature 54 °F 67 °F 86 °F (2012)
Min Temperature 32 °F 42 °F 28 °F (2008)
Degree Days  
Heating Degree Days 22    
Moisture  
Dew Point 32 °F    
Average Humidity 78    
Maximum Humidity 99    
Minimum Humidity 48    
Precipitation  
Precipitation 0.09 in - - ()
Sea Level Pressure  
Sea Level Pressure 30.28 in    
Wind  
Wind Speed 13 mph ()    
Max Wind Speed 28 mph    
Max Gust Speed 36 mph    
Visibility 6.5 miles    
Events Rain , Snow , Thunderstorm    
Averages and records for this station are not official NWS values.
T = Trace of Precipitation, MM = Missing Value Source: Averaged Metar Reports

Daily Weather History Graph

Daily Weather History Graph

Search for Another Location

Airport or City:

Astronomy

Oct. 24, 2019 Rise Set
Actual Time 7:56 AM CDT 6:54 PM CDT
Civil Twilight 7:30 AM CDT 7:20 PM CDT
Nautical Twilight 7:00 AM CDT 7:50 PM CDT
Astronomical Twilight 6:30 AM CDT 8:20 PM CDT
Moon 3:40 AM CDT (10/24) 5:13 PM CDT (10/24)
Length of Visible Light 11h 50m
Length of Day
10h 58m
Waning Crescent, 16% of the Moon is Illuminated
Oct 24
Waning Crescent
Oct 27
New
Nov 4
First Quarter
Nov 12
Full
Nov 19
Last Quarter

Hourly Weather History & Observations

Time (CDT) Temp. Windchill Dew Point Humidity Pressure Visibility Wind Dir Wind Speed Gust Speed Precip Events Conditions
12:15 AM 54.9 °F - 35.4 °F 48% 30.09 in 10.0 mi ENE 10.4 mph - N/A   Clear
12:35 AM 53.2 °F - 34.7 °F 49% 30.09 in 10.0 mi NE 10.4 mph - N/A   Clear
12:55 AM 52.3 °F - 34.9 °F 51% 30.09 in 10.0 mi NNE 9.2 mph - N/A   Clear
1:15 AM 51.3 °F - 34.3 °F 52% 30.10 in 10.0 mi North 8.1 mph - N/A   Clear
1:35 AM 50.4 °F - 33.8 °F 53% 30.10 in 10.0 mi North 3.5 mph - N/A   Clear
1:55 AM 50.0 °F - 33.8 °F 54% 30.13 in 10.0 mi North 11.5 mph 16.1 mph N/A   Clear
2:15 AM 51.8 °F - 32.4 °F 48% 30.14 in 10.0 mi NNE 17.3 mph 26.5 mph N/A   Clear
2:35 AM 51.8 °F - 33.3 °F 49% 30.15 in 10.0 mi NNE 15.0 mph 25.3 mph N/A   Scattered Clouds
3:15 AM 48.7 °F - 35.2 °F 60% 30.17 in 10.0 mi NNE 20.7 mph 31.1 mph N/A   Mostly Cloudy
3:35 AM 47.3 °F - 35.1 °F 62% 30.16 in 10.0 mi NNE 18.4 mph 31.1 mph N/A   Overcast
3:55 AM 47.3 °F - 35.6 °F 64% 30.17 in 10.0 mi NNE 20.7 mph 31.1 mph N/A   Overcast
4:15 AM 46.2 °F 38.1 °F 35.8 °F 67% 30.18 in 10.0 mi NNE 23.0 mph 32.2 mph N/A   Overcast
4:35 AM 45.5 °F 37.8 °F 35.8 °F 69% 30.19 in 10.0 mi North 19.6 mph 32.2 mph N/A   Overcast
4:55 AM 44.6 °F 36.6 °F 35.6 °F 71% 30.20 in 10.0 mi NNE 19.6 mph 25.3 mph N/A   Overcast
5:15 AM 43.9 °F 36.2 °F 34.9 °F 71% 30.21 in 10.0 mi North 17.3 mph 24.2 mph N/A   Overcast
5:35 AM 43.0 °F 33.5 °F 33.6 °F 70% 30.22 in 10.0 mi NNE 24.2 mph 31.1 mph N/A   Overcast
5:55 AM 41.9 °F 34.0 °F 32.0 °F 68% 30.24 in 10.0 mi North 16.1 mph 26.5 mph N/A   Overcast
6:15 AM 41.0 °F 32.2 °F 31.6 °F 69% 30.25 in 10.0 mi North 18.4 mph 26.5 mph N/A   Overcast
6:35 AM 40.5 °F 32.5 °F 31.5 °F 70% 30.26 in 10.0 mi North 15.0 mph 21.9 mph N/A   Overcast
6:55 AM 40.1 °F 30.7 °F 30.9 °F 70% 30.26 in 10.0 mi North 19.6 mph 29.9 mph N/A   Overcast
7:15 AM 39.7 °F 29.7 °F 30.7 °F 70% 30.26 in 10.0 mi NNE 21.9 mph 27.6 mph N/A   Overcast
7:35 AM 39.7 °F 30.0 °F 30.6 °F 70% 30.27 in 10.0 mi North 20.7 mph 28.8 mph N/A   Overcast
7:55 AM 39.4 °F 28.7 °F 30.4 °F 70% 30.27 in 10.0 mi North 24.2 mph 29.9 mph N/A   Overcast
8:15 AM 39.2 °F 29.0 °F 30.0 °F 70% 30.28 in 10.0 mi NNE 21.9 mph 31.1 mph N/A   Overcast
8:35 AM 39.2 °F 30.5 °F 29.8 °F 69% 30.29 in 10.0 mi NNE 16.1 mph 27.6 mph N/A   Overcast
8:55 AM 39.2 °F 29.6 °F 29.3 °F 68% 30.29 in 10.0 mi NNE 19.6 mph 28.8 mph N/A   Overcast
9:15 AM 39.4 °F 29.5 °F 29.1 °F 67% 30.30 in 10.0 mi NNE 20.7 mph 33.4 mph N/A   Overcast
9:35 AM 39.6 °F 29.0 °F 29.3 °F 67% 30.30 in 10.0 mi NNE 24.2 mph 34.5 mph N/A   Overcast
9:55 AM 39.7 °F 30.3 °F 29.3 °F 66% 30.30 in 10.0 mi NNE 19.6 mph 33.4 mph N/A   Overcast
10:15 AM 40.1 °F 29.0 °F 29.1 °F 65% 30.30 in 10.0 mi North 27.6 mph 35.7 mph N/A   Overcast
10:35 AM 39.2 °F 28.3 °F 29.7 °F 69% 30.32 in 10.0 mi North 25.3 mph 31.1 mph N/A   Overcast
10:55 AM 39.2 °F 29.8 °F 29.5 °F 68% 30.33 in 10.0 mi NNE 18.4 mph 31.1 mph N/A   Overcast
11:15 AM 39.2 °F 29.6 °F 29.5 °F 68% 30.32 in 10.0 mi NNE 19.6 mph 34.5 mph N/A   Overcast
11:35 AM 39.6 °F 29.2 °F 29.3 °F 67% 30.32 in 10.0 mi North 23.0 mph 31.1 mph N/A   Overcast
11:55 AM 39.6 °F 28.5 °F 28.4 °F 64% 30.27 in 10.0 mi North 26.5 mph 33.4 mph N/A Thunderstorm Overcast
12:15 PM 39.2 °F 30.5 °F 27.9 °F 64% 30.28 in 10.0 mi North 16.1 mph 31.1 mph N/A   Overcast
12:35 PM 39.2 °F 29.3 °F 28.8 °F 66% 30.32 in 10.0 mi North 20.7 mph 29.9 mph N/A Thunderstorm Thunderstorm
12:55 PM 38.7 °F 31.4 °F 30.4 °F 72% 30.35 in 4.0 mi North 11.5 mph 29.9 mph N/A Thunderstorm Unknown
1:15 PM 35.1 °F 25.2 °F 32.4 °F 90% 30.33 in 1.5 mi North 16.1 mph 24.2 mph N/A Rain , Thunderstorm Light Thunderstorms and Rain
1:35 PM 33.8 °F 24.3 °F 32.7 °F 96% 30.32 in 0.5 mi North 13.8 mph 20.7 mph 0.01 in Snow Snow
1:55 PM 33.8 °F 25.3 °F 32.9 °F 96% 30.31 in 0.5 mi North 11.5 mph 18.4 mph 0.02 in Snow Snow
2:15 PM 33.8 °F 23.9 °F 32.9 °F 96% 30.27 in 0.5 mi NNE 15.0 mph - 0.02 in Snow Snow
2:35 PM 33.8 °F 25.8 °F 33.1 °F 97% 30.32 in 0.5 mi North 10.4 mph - 0.02 in Snow Snow
2:55 PM 33.6 °F 24.6 °F 32.9 °F 97% 30.30 in 0.5 mi North 12.7 mph - 0.02 in Snow Snow
3:15 PM 33.4 °F 24.3 °F 32.9 °F 98% 30.32 in 0.2 mi North 12.7 mph - N/A Snow Snow
3:35 PM 33.4 °F 25.4 °F 32.9 °F 98% 30.33 in 0.5 mi North 10.4 mph 17.3 mph N/A Snow Snow
3:55 PM 33.4 °F 24.8 °F 32.9 °F 98% 30.32 in 0.8 mi North 11.5 mph 17.3 mph N/A Snow Light Snow
4:15 PM 33.4 °F 24.3 °F 32.9 °F 98% 30.32 in 0.5 mi North 12.7 mph 21.9 mph N/A Snow Snow
4:35 PM 32.9 °F 23.2 °F 32.4 °F 98% 30.31 in 0.2 mi North 13.8 mph 23.0 mph 0.01 in Snow Snow
4:55 PM 32.9 °F 24.1 °F 32.2 °F 97% 30.32 in 0.8 mi North 11.5 mph 18.4 mph 0.01 in Snow Light Snow
5:15 PM 32.9 °F 24.1 °F 32.2 °F 97% 30.31 in 0.5 mi North 11.5 mph 20.7 mph N/A Snow Snow
5:35 PM 33.1 °F 24.4 °F 32.5 °F 98% 30.32 in 0.5 mi North 11.5 mph - N/A Snow Light Snow
5:55 PM 33.1 °F 24.9 °F 32.5 °F 98% 30.31 in 0.8 mi North 10.4 mph - N/A Snow Light Snow
6:15 PM 33.1 °F 24.4 °F 32.5 °F 98% 30.31 in 0.5 mi North 11.5 mph 17.3 mph N/A Snow Light Snow
6:35 PM 33.1 °F 26.1 °F 32.7 °F 99% 30.33 in 1.0 mi North 8.1 mph - N/A Snow Light Snow
6:55 PM 33.4 °F 28.1 °F 32.9 °F 98% 30.34 in 1.2 mi North 5.8 mph - N/A Snow Light Snow
7:15 PM 33.4 °F 28.1 °F 32.9 °F 98% 30.33 in 1.5 mi North 5.8 mph - 0.01 in Snow Light Snow
7:35 PM 33.4 °F 26.6 °F 32.9 °F 98% 30.33 in 1.5 mi North 8.1 mph - 0.02 in Snow Light Snow
7:55 PM - - - N/A% 30.35 in - North 5.8 mph - 0.02 in   Unknown
8:15 PM 33.4 °F 30.4 °F 33.1 °F 99% 30.36 in 2.0 mi North 3.5 mph - 0.01 in Snow Light Snow
8:35 PM 33.4 °F 29.1 °F 33.1 °F 99% 30.35 in 2.0 mi NNW 4.6 mph - 0.01 in Snow Light Snow
8:55 PM 33.4 °F 30.4 °F 33.1 °F 99% - 3.0 mi North 3.5 mph - 0.01 in Snow Light Snow
9:15 PM - - - N/A% - - North - - N/A   Unknown
9:35 PM - - - N/A% - - NNW 4.6 mph - 0.01 in   Unknown
9:55 PM 33.8 °F 28.6 °F 33.4 °F 99% 30.37 in 2.5 mi North 5.8 mph - 0.01 in Snow Light Snow
10:15 PM 33.8 °F 30.8 °F 33.3 °F 98% 30.37 in 2.5 mi NNW 3.5 mph - N/A Snow Light Snow
10:35 PM 33.8 °F - 33.1 °F 97% 30.37 in 3.0 mi Calm Calm - N/A Snow Light Snow
10:55 PM 34.3 °F - 33.8 °F 98% 30.37 in 10.0 mi Calm Calm - N/A   Overcast
11:15 PM 35.8 °F - 32.0 °F 86% 30.37 in 10.0 mi Calm Calm - N/A   Overcast
11:35 PM 36.0 °F - 31.8 °F 85% 30.37 in 10.0 mi Calm Calm - N/A   Overcast
11:55 PM 35.1 °F - 32.0 °F 89% 30.37 in 10.0 mi Calm Calm - N/A   Overcast